Location: Newark
(55.7167°N, 12.5667°E)
Time: 12:34:39
(UTC+00:00)

N. Korean satellite - Pass Details

Date: 19 December 2019
Orbit: 454 x 508 km, 97.2° (Epoch: 17 January)

Event Time Altitude Azimuth Distance (km) Brightness Sun altitude
Rises 05:48:39 0° 10° (N) 2,533 10.1 -13.5°
Reaches altitude 10° 05:50:47 10° 3° (N) 1,641 9.1 -13.2°
Maximum altitude 05:54:08 43° 291° (WNW) 665 6.8 -12.8°
Drops below altitude 10° 05:57:25 10° 219° (SW) 1,606 9.0 -12.4°
Sets 05:59:29 0° 213° (SSW) 2,471 10.1 -12.1°
